Other Public Products
Issued by NWS Charleston, SC

Current Version | Previous Version | Graphics & Text | Print | Product List | Glossary On
Versions: 1 2 3 4 5 6 7 8 9 10 11 12 13 14 15 16 17 18 19 20 21 22 23 24 25 26 27 28 29 30 31 32 33 34 35 36 37 38 39 40 41 42 43 44 45 46 47 48 49 50
000
FPUS82 KCHS 212027
OPUCHS

TEST...KCHS/KSAV Gateway Observations...TEST
National Weather Service Charleston SC
400 PM EDT THU SEP 21 2017

NOTE: "fair" indicates few or no clouds below 12,000 feet with no
significant weather and/or obstructions to visibility.

SCZ050-WAZ558-NCZ071-TXZ119-213-PAZ071-DCZ001-FLZ074-172-MI076-
NYZ176-178-MAZ016-IL014-TNZ027-NJZ106-GAZ044-MD014-212100-

...Gateway Observations for Charleston International...

CITY           SKY/WX    TMP DP  RH WIND       PRES   REMARKS
Chas Airport   CLOUDY    87  73  62 SE14      29.98S THUNDER HX  94
Seattle        CLOUDY    57  48  72 CALM      29.95S
Charlotte      MOSUNNY   87  61  41 VRB5      30.03F
Dallas DFW     MOSUNNY   95  70  44 S12G21    29.88F HX 101
Dallas Love    MOSUNNY   96  69  41 S15       29.89F HX 102
Philladelphia  PTSUNNY   87  60  40 VRB3      29.98F
Wash National  MOSUNNY   86  65  49 NW8       30.01F
Baltimore      PTSUNNY   86  64  47 W6        30.00S
Miami          CLOUDY    87  78  74 E10       29.91F HX 100
Detroit        MOSUNNY   87  74  64 SE9       30.05F HX  95
Newark         PTSUNNY   82  61  48 N10       29.98S
Laguardia      CLOUDY    79  64  60 N13       29.97F
J F K          PTSUNNY   80  64  58 N16       29.98F
Boston Logan   CLOUDY    72  53  51 NE23      30.00S
Ft. Lauderdale PTSUNNY   86  79  79 NE12      29.90F HX  99
Chicago O`Hare PTSUNNY   94  61  33 S8        29.99F HX  94
Chicago Midway PTSUNNY   94  65  38 S8        29.99F HX  96
Houston Bush   CLOUDY    78  70  76 S12       29.94F
Houston Hobby  LGT RAIN  76  70  82 N6        29.95S
Nashville      MOSUNNY   91  66  43 CALM      30.04F HX  93
Atlanta        PTSUNNY   88  65  46 W5        30.03F HX  90

$$

GAZ044-118-TXZ119-213-NCZ071-DCZ001-MDZ014-506-PAZ021-071-NJZ106-
NYZ176-178-MAZ106-OHZ011-021-055-MIZ076-KYZ091-ILZ014-INZ047-
MNZ060-ONZ431-212100-

...Gateway Observations for Savannah International...

CITY           SKY/WX    TMP DP  RH WIND       PRES   REMARKS
Savannah Arpt  PTSUNNY   91  69  48 SE8       29.98F HX  96
Atlanta        PTSUNNY   88  65  46 W5        30.03F HX  90
Charlotte      MOSUNNY   87  61  41 VRB5      30.03F
Dallas DFW     MOSUNNY   95  70  44 S12G21    29.88F HX 101
Houston Bush   CLOUDY    78  70  76 S12       29.94F
Wash National  MOSUNNY   86  65  49 NW8       30.01F
Wash Dulles    MOSUNNY   84  61  45 VRB3      30.03F
Baltimore      PTSUNNY   86  64  47 W6        30.00S
Philadelphia   PTSUNNY   87  60  40 VRB3      29.98F
Newark         PTSUNNY   82  61  48 N10       29.98S
Laguardia      CLOUDY    79  64  60 N13       29.97F
J F K          PTSUNNY   80  64  58 N16       29.98F
Boston         CLOUDY    72  53  51 NE23      30.00S
Pittsburg      MOSUNNY   86  61  42 E6        30.09S
Akron          PTSUNNY   90  60  36 N5        30.09F
Cleveland      MOSUNNY   89  65  44 N9        30.09S HX  91
Cincinnati     MOSUNNY   88  72  58 W5        30.06F HX  94
Columbus       SUNNY     87  64  46 CALM      30.05F
Detroit        MOSUNNY   87  74  64 SE9       30.05F HX  95
Chicago O`Hare PTSUNNY   94  61  33 S8        29.99F HX  94
Minneapolis    MOSUNNY   81  68  64 SE17G24   29.85F
Indianapolis   MOSUNNY   91  69  48 S5        30.04F HX  96
Toronto Canada SUNNY     81  61  50 SE7       30.10F

$$




USA.gov is the U.S. government's official web portal to all federal, state and local government web resources and services.